Location: Unspecified
(50.5016°N, 0.0000°E)
Time: 02:34:17
(UTC+00:00)

SDS-4 - Visible Passes

Search period start: 04 April 2026 00:00
Search period end: 14 April 2026 00:00
Orbit: 638 x 648 km, 98.1° (Epoch: 29 March)

Date Brightness Start Highest point End Pass type
(mag) Time Alt. Az. Time Alt. Az. Time Alt. Az.
4 Apr ? 00:24:25 13° NW 00:24:25 13° NW 00:25:04 10° NW visible
4 Apr ? 21:33:39 14° NE 21:33:39 14° NE 21:35:40 10° NNE visible
4 Apr ? 23:11:17 31° NNW 23:11:17 31° NNW 23:13:39 10° NNW visible
5 Apr ? 21:58:09 21° NE 21:58:09 21° NE 22:00:43 10° N visible
5 Apr ? 23:35:47 26° NW 23:35:47 26° NW 23:37:55 10° NNW visible
6 Apr ? 22:22:39 29° NNE 22:22:39 29° NNE 22:25:26 10° N visible
7 Apr ? 00:00:17 20° NW 00:00:17 20° NW 00:01:59 10° NNW visible
7 Apr ? 22:47:09 36° NNE 22:47:09 36° NNE 22:49:59 10° N visible
8 Apr ? 00:24:47 14° NW 00:24:47 14° NW 00:25:47 10° NW visible
8 Apr ? 21:34:01 15° NE 21:34:01 15° NE 21:36:24 10° NNE visible
8 Apr ? 23:11:39 37° NNW 23:11:39 37° NNW 23:14:23 10° NNW visible
9 Apr ? 21:58:30 22° NE 21:58:30 22° NE 22:01:26 10° N visible
9 Apr ? 23:36:08 31° NW 23:36:08 31° NW 23:38:37 10° NNW visible
10 Apr ? 22:22:59 31° NE 22:22:59 31° NE 22:26:09 10° N visible
11 Apr ? 00:00:37 22° NW 00:00:37 22° NW 00:02:41 10° NNW visible
11 Apr ? 22:47:28 42° NNE 22:47:28 42° NNE 22:50:41 10° N visible
12 Apr ? 00:25:06 15° WNW 00:25:06 15° WNW 00:26:27 10° NW visible
12 Apr ? 21:34:20 15° ENE 21:34:39 15° NE 21:37:07 10° NNE visible
12 Apr ? 23:11:57 45° NNW 23:11:57 45° NNW 23:15:03 10° NNW visible
13 Apr ? 21:58:48 22° ENE 21:58:48 22° ENE 22:02:07 10° N visible
13 Apr ? 23:36:26 35° NW 23:36:26 35° NW 23:39:18 10° NNW visible
